Wind_Speed
8 9 11 12 14 16 18 20 21 22 23 25 27 27 27 28 29 30 29 30 31 31 31 30 30 30 31 30 29 28 27 26 26 25 24 23 23 23
7 8 10 11 13 14 15 17 19 20 22 24 26 27 27 27 28 30 30 30 31 32 31 31 31 31 31 32 31 31 31 30 29 27 26 26 25 25
6 8 9 11 12 13 13 15 16 18 20 22 24 25 26 27 28 29 30 31 30 32 33 32 33 33 33 32 33 32 32 32 31 30 29 27 27 27
6 7 8 10 11 11 12 13 14 15 16 18 21 23 24 24 27 29 29 30 30 31 33 33 33 33 33 33 33 33 33 33 33 32 32 31 30 29
6 6 7 8 9 10 11 12 13 14 15 16 18 21 22 22 24 26 28 29 30 30 31 32 33 33 33 33 33 34 34 34 34 34 34 33 32 31
6 5 5 6 7 9 10 11 12 14 15 15 17 18 20 21 22 24 26 27 28 29 31 32 33 33 34 35 34 35 35 36 36 35 35 35 35 34
6 5 5 6 7 8 10 11 12 13 15 16 17 18 18 20 21 22 24 26 27 28 29 31 32 33 34 35 35 36 36 36 36 36 36 36 36 37
8 6 6 6 7 9 10 11 12 13 14 15 16 17 17 18 20 21 22 24 25 27 29 30 30 31 32 34 35 36 36 36 36 37 37 37 38 38
9 8 7 7 8 9 10 11 12 13 14 15 16 17 17 18 19 21 22 23 25 26 26 28 29 30 31 32 33 34 35 36 37 37 37 38 38 38
11 10 9 9 8 9 10 11 12 13 13 14 15 16 17 19 19 19 20 22 23 25 25 26 27 28 28 30 32 33 34 35 35 36 36 37 38 39
12 11 11 10 10 9 10 11 12 13 13 14 15 16 17 18 19 20 20 21 22 24 26 26 27 28 28 29 31 32 33 34 34 35 36 37 37 37
13 12 12 11 10 10 10 11 12 13 13 14 15 16 18 18 19 20 21 22 23 24 25 26 27 28 29 30 30 32 33 34 34 34 35 36 37 38
14 14 13 13 12 12 12 12 12 13 14 15 16 17 18 19 19 20 21 22 23 24 25 25 26 27 28 29 30 31 32 33 34 35 36 36 37 38
16 15 15 15 14 14 14 13 14 14 15 15 16 17 18 19 20 21 22 23 23 24 25 26 26 27 28 29 30 32 33 34 34 35 36 36 37 38
18 17 16 16 16 16 16 15 15 15 16 16 17 18 18 19 20 21 22 23 24 25 26 27 27 28 29 29 30 32 33 33 34 35 35 36 36 37
19 19 18 18 17 17 17 17 17 18 18 18 19 19 20 20 21 22 23 24 25 26 27 27 28 28 29 30 31 31 33 34 34 35 36 36 37 37
20 20 20 20 20 19 19 19 20 20 20 21 21 22 22 22 23 24 24 25 26 26 27 28 29 29 30 31 32 32 33 34 35 36 36 36 37 37
22 22 22 21 21 22 22 22 22 22 23 23 24 24 24 25 25 25 26 26 27 27 28 29 30 30 31 32 33 34 35 35 37 38 38 38 39 40
24 24 24 24 24 24 24 24 24 25 25 25 26 27 27 28 28 28 28 28 29 29 30 30 31 32 32 33 34 35 36 37 38 39 39 40 40 41
27 27 26 26 26 26 26 26 27 27 27 28 28 28 29 29 30 30 30 30 31 31 32 33 33 34 35 35 35 37 38 39 40 41 42 43 43 43
29 29 29 28 28 28 29 29 29 29 30 30 30 31 31 31 31 31 32 32 33 33 34 35 36 37 38 38 38 38 39 41 42 43 44 44 44 45
31 31 31 31 31 31 31 31 31 31 32 32 32 32 32 32 33 33 34 34 35 35 36 37 38 39 40 40 41 41 41 42 43 44 44 45 45 45
33 33 33 33 33 33 33 33 33 33 33 33 33 34 34 34 35 35 36 36 37 37 38 39 40 41 41 42 42 43 43 43 43 44 44 46 46 47
Wind_Direction
253 246 240 233 230 230 231 230 231 233 233 232 231 231 232 232 233 233 235 235 235 234 236 237 237 238 239 239 239 241 242 244 246 248 249 251 253 256
262 252 243 237 235 234 235 233 232 235 237 235 233 234 234 234 234 233 235 237 236 236 237 238 239 240 241 242 242 242 244 244 246 248 250 253 256 258
274 261 249 243 240 239 236 235 235 236 237 236 235 236 236 237 238 238 237 238 239 238 237 239 241 242 241 242 243 242 243 245 246 248 251 253 256 257
286 271 256 246 242 241 237 237 237 237 236 237 238 239 240 241 240 239 238 239 240 240 239 240 241 242 242 242 243 243 244 246 247 250 252 253 256 257
304 284 266 253 246 245 241 238 238 238 237 239 241 241 241 242 240 238 238 240 240 241 241 240 241 243 243 242 243 244 246 246 248 251 253 254 255 257
322 304 278 261 255 251 247 244 242 241 238 238 239 240 242 244 241 240 239 240 242 242 242 241 243 244 245 245 245 245 247 248 250 251 252 254 256 257
333 314 291 272 261 257 253 250 247 246 244 241 240 241 244 245 244 243 242 243 244 244 244 243 244 246 246 247 247 248 249 251 252 251 253 255 256 257
343 327 304 285 273 265 261 257 253 251 249 247 245 244 247 248 248 247 246 244 245 247 248 248 248 248 248 249 249 250 250 251 253 254 254 256 257 259
343 336 324 303 285 275 268 264 260 257 257 254 251 249 250 250 250 249 249 250 250 250 250 249 251 250 250 251 251 252 252 253 254 256 257 258 258 259
341 336 329 320 303 289 278 270 267 264 262 260 258 256 256 257 257 255 254 253 252 251 252 253 251 251 252 253 253 253 254 255 257 258 259 260 260 260
336 334 331 323 311 300 288 278 273 269 267 265 263 261 261 261 261 260 260 259 255 255 255 255 254 254 254 254 254 255 256 257 258 260 260 261 261 261
331 328 326 324 319 307 297 288 280 274 271 270 268 266 266 264 262 262 263 262 259 257 257 257 256 256 256 256 256 256 257 258 259 260 262 262 262 263
326 322 320 318 315 310 303 296 288 280 277 275 271 269 268 267 266 266 266 265 263 261 259 259 260 260 260 259 259 259 260 260 261 261 262 263 263 264
321 319 316 314 311 307 302 297 292 287 282 280 277 275 272 271 269 268 269 268 267 265 265 264 264 264 264 263 262 261 262 263 263 263 263 264 264 265
313 312 311 311 309 305 301 296 293 290 286 283 281 278 276 274 272 270 270 269 269 268 267 267 268 268 267 266 266 265 264 264 264 264 264 265 265 265
310 308 306 306 305 303 300 298 294 290 288 286 283 281 279 278 276 275 273 272 272 271 271 271 272 271 270 269 269 269 267 267 266 266 265 265 265 266
305 305 304 302 301 300 298 297 295 291 288 286 284 282 280 279 278 277 276 275 274 273 273 273 274 274 273 272 272 271 271 270 269 269 267 266 265 265
300 301 300 299 298 298 297 295 293 292 289 287 284 282 281 279 278 277 277 276 275 274 273 273 274 274 274 275 274 274 272 271 271 271 271 271 270 268
296 297 297 295 295 295 294 294 293 292 291 288 286 284 282 280 279 278 278 277 277 276 275 275 275 275 275 275 275 276 275 274 273 272 272 273 272 270
294 295 295 294 294 293 293 293 292 291 290 289 287 286 284 282 280 279 279 278 277 277 277 277 277 277 277 277 277 277 277 277 276 275 275 274 274 272
292 293 293 293 293 292 292 292 292 292 290 289 288 286 285 283 282 281 280 279 279 278 278 279 279 279 279 279 279 279 278 278 278 277 277 276 275 274
290 291 291 292 291 291 292 292 292 291 290 289 288 287 285 284 283 282 282 281 280 280 280 280 280 280 280 280 280 280 280 279 279 279 279 278 277 275
288 289 290 290 290 291 291 291 291 291 289 288 287 287 286 284 283 283 283 283 283 282 282 282 282 282 282 282 282 282 281 280 280 280 279 279 278 277
Height
5759 5760 5761 5763 5765 5768 5771 5774 5778 5781 5784 5788 5791 5795 5798 5802 5805 5809 5812 5816 5819 5823 5826 5830 5833 5836 5839 5842 5845 5848 5851 5853 5855 5857 5859 5860 5862 5863
5757 5758 5759 5760 5762 5765 5768 5770 5773 5776 5779 5782 5786 5789 5792 5796 5799 5802 5806 5809 5813 5816 5820 5823 5826 5829 5833 5836 5838 5841 5844 5847 5849 5850 5852 5854 5856 5857
5755 5756 5757 5758 5760 5762 5764 5767 5769 5772 5775 5777 5780 5783 5787 5790 5793 5796 5799 5802 5806 5809 5813 5816 5819 5822 5825 5828 5831 5834 5837 5839 5842 5844 5846 5847 5848 5850
5754 5754 5755 5756 5757 5759 5761 5763 5766 5768 5771 5773 5776 5778 5781 5784 5787 5790 5793 5796 5799 5802 5805 5809 5812 5815 5818 5821 5823 5826 5829 5832 5834 5836 5838 5840 5841 5842
5753 5753 5753 5754 5755 5757 5759 5761 5763 5765 5767 5769 5771 5773 5776 5778 5780 5783 5786 5789 5792 5795 5798 5801 5804 5807 5810 5813 5816 5818 5821 5824 5826 5828 5830 5832 5833 5835
5752 5752 5752 5753 5753 5755 5756 5758 5759 5761 5763 5765 5766 5768 5770 5772 5775 5777 5780 5782 5785 5788 5790 5793 5796 5799 5802 5805 5808 5810 5812 5815 5817 5819 5821 5823 5825 5826
5752 5751 5751 5751 5752 5753 5754 5755 5756 5757 5759 5760 5762 5764 5766 5768 5769 5771 5774 5776 5778 5781 5783 5786 5788 5791 5793 5796 5799 5801 5804 5806 5808 5810 5812 5814 5815 5817
5752 5750 5750 5750 5750 5750 5751 5752 5753 5754 5755 5756 5758 5760 5761 5763 5764 5766 5768 5770 5772 5775 5776 5778 5780 5782 5784 5787 5789 5792 5794 5796 5798 5800 5802 5804 5805 5807
5751 5750 5749 5748 5748 5748 5748 5749 5750 5750 5751 5753 5754 5755 5757 5758 5759 5761 5762 5764 5766 5767 5769 5771 5772 5774 5776 5778 5780 5782 5784 5787 5789 5791 5792 5794 5795 5797
5750 5749 5748 5747 5746 5746 5746 5746 5746 5747 5748 5749 5750 5751 5752 5753 5754 5755 5756 5758 5759 5760 5762 5763 5764 5766 5768 5769 5771 5773 5775 5777 5779 5780 5782 5783 5784 5786
5749 5747 5746 5745 5744 5743 5743 5743 5743 5743 5744 5744 5745 5746 5747 5748 5749 5750 5751 5752 5753 5754 5755 5756 5757 5758 5760 5761 5763 5764 5766 5767 5769 5770 5771 5773 5774 5775
5748 5746 5744 5743 5742 5741 5740 5740 5740 5740 5740 5740 5741 5741 5742 5742 5743 5744 5745 5746 5746 5747 5748 5749 5750 5751 5752 5753 5754 5755 5756 5758 5759 5760 5761 5762 5763 5764
5745 5744 5742 5740 5739 5738 5737 5737 5736 5736 5736 5736 5736 5737 5737 5737 5737 5738 5738 5739 5739 5740 5740 5741 5742 5743 5744 5745 5745 5746 5747 5748 5749 5750 5750 5752 5752 5753
5743 5741 5739 5737 5736 5735 5734 5733 5732 5732 5732 5732 5731 5731 5731 5731 5731 5732 5732 5732 5732 5732 5732 5733 5734 5734 5735 5736 5737 5737 5737 5738 5738 5739 5740 5740 5741 5742
5739 5737 5736 5734 5732 5731 5730 5729 5728 5728 5727 5727 5726 5726 5726 5725 5725 5725 5725 5725 5725 5725 5725 5725 5726 5726 5726 5727 5728 5728 5728 5728 5728 5728 5729 5729 5730 5731
5735 5733 5731 5730 5728 5727 5726 5724 5723 5723 5722 5721 5721 5720 5720 5719 5719 5719 5718 5718 5718 5718 5717 5717 5717 5717 5717 5717 5718 5718 5718 5718 5718 5718 5718 5718 5718 5719
5730 5728 5727 5725 5724 5722 5721 5719 5718 5717 5716 5716 5715 5714 5714 5713 5712 5712 5711 5711 5710 5710 5709 5709 5708 5708 5708 5708 5708 5708 5707 5707 5707 5707 5707 5707 5707 5707
5725 5723 5721 5720 5718 5717 5715 5714 5712 5711 5710 5709 5708 5707 5706 5706 5705 5704 5704 5703 5703 5702 5701 5700 5700 5699 5699 5698 5698 5697 5697 5696 5696 5695 5695 5695 5695 5695
5718 5717 5715 5713 5712 5710 5709 5707 5705 5704 5702 5701 5700 5699 5698 5697 5696 5696 5695 5694 5693 5693 5692 5691 5690 5689 5689 5689 5688 5686 5685 5684 5684 5683 5683 5682 5682 5682
5711 5709 5708 5706 5704 5703 5701 5699 5698 5696 5694 5693 5691 5690 5689 5688 5687 5686 5685 5684 5684 5683 5682 5680 5679 5678 5678 5677 5677 5675 5673 5671 5671 5670 5669 5669 5668 5668
5703 5701 5699 5698 5696 5694 5693 5691 5689 5687 5686 5684 5682 5681 5679 5678 5677 5676 5675 5674 5673 5672 5671 5669 5668 5666 5665 5664 5664 5663 5660 5658 5657 5656 5655 5654 5654 5653
5694 5692 5690 5689 5687 5685 5684 5682 5680 5678 5676 5674 5672 5671 5669 5668 5666 5665 5664 5663 5661 5660 5659 5657 5655 5654 5652 5651 5649 5648 5647 5644 5642 5640 5639 5638 5637 5637
5684 5682 5681 5679 5677 5675 5674 5672 5670 5668 5666 5664 5662 5660 5658 5657 5655 5653 5652 5650 5649 5647 5646 5644 5642 5640 5638 5636 5634 5633 5631 5629 5627 5626 5624 5621 5620 5619